Location: Asheville, NC
(35.6000°N, 82.5500°W)
Time: 20:12:25

Vanguard 1 Rocket - Pass Details

Date: 15 March 2018
Orbit: 655 x 4222 km, 34.3° (Epoch: 16 March)

Event Time Altitude Azimuth Distance (km) Brightness Sun altitude
Rises 00:52:23 0° 284° (WNW) 5,779 11.8 -54.8°
Reaches altitude 10° 00:55:38 10° 279° (W) 5,155 11.4 -55.1°
Enters shadow 01:02:37 34° 262° (W) 4,229 10.6 -55.5°
Maximum altitude 01:11:37 52° 210° (SSW) 4,145 - -55.9°
Drops below altitude 10° 01:35:53 10° 142° (SE) 7,410 - -56.5°
Sets 01:41:55 0° 138° (SE) 8,348 - -56.5°
